Flag for Norway Weather past 2 weeks in Kvernaland, Norway

Now
53 °F

Rain. Overcast.


Feels Like: 51 °F
Forecast: 50 / 54 °F
Wind: 8 mph from South

Location: Stavanger / Sola

Current Time: Oct 23, 2014 at 10:09:28 PM

Latest Report: Oct 23, 2014 at 9:00 PM


Visibility: 3 mi

Pressure: 29.81 "Hg

Humidity: 95%

Dew point: 52 °F

Location of KvernalandLocation

Historic Weather in Kvernaland — Graph

°F

Kvernaland temperature yesterday

Maximum temperature yesterday: 55 °F (at 12:00 AM)
Minimum temperature yesterday: 47 °F (at 11:00 PM)
Average temperature yesterday: 50 °F

Past Weeks' High & Low Weather Summary

 TemperatureHumidityPressure
High59 °F (Oct 19, 2:00 PM)98% (Oct 12, 9:00 AM)29.98 "Hg (Oct 12, 9:00 AM)
Low34 °F (Oct 17, 2:00 AM)46% (Oct 16, 4:00 PM)29.15 "Hg (Oct 21, 4:00 PM)
Average50 °F84%29.73 "Hg
* Reported Oct 8 9:00 PM — Oct 23 9:00 PM, Kvernaland, Weather by CustomWeather, © 2014

Note: Actual official high and low records may vary slightly from our data, if they occured in-between our weather recording intervals... More about our weather records

Advertising

Kvernaland weather history for previous 24 hours

 ConditionsComfort  
Time TempWeatherWind HumidityBarometerVisibility
9:00 PM
Oct 23
53 °FRain. Overcast.8 mph95%29.81 "Hg3 mi
8:00 PM53 °FRain. Fog.9 mph95%29.82 "Hg3 mi
7:00 PM53 °FLight rain. Overcast.8 mph96%29.82 "Hg4 mi
6:00 PM53 °FLight rain. Low clouds.7 mph96%29.83 "Hg3 mi
5:00 PM53 °FDrizzle. Low clouds.8 mph95%29.84 "Hg3 mi
4:00 PM54 °FRain showers. Low clouds.8 mph94%29.85 "Hg4 mi
3:00 PM53 °FLight rain. Overcast.7 mph95%29.85 "Hg2 mi
2:00 PM53 °FDrizzle. Overcast.7 mph95%29.86 "Hg3 mi
1:00 PM53 °FRain showers. Low clouds.7 mph95%29.86 "Hg3 mi
12:00 PM53 °FOvercast.7 mph96%29.86 "Hg4 mi
11:00 AM53 °FRain showers. Low clouds.7 mph96%29.86 "Hg3 mi
10:00 AM52 °FRain showers. Low clouds.7 mph95%29.85 "Hg4 mi
9:00 AM51 °FRain. Overcast.7 mph95%29.85 "Hg4 mi
8:00 AM50 °FRain showers. Overcast.9 mph93%29.85 "Hg4 mi
7:00 AM50 °FDrizzle. Overcast.9 mph90%29.85 "Hg6 mi
6:00 AM48 °FLight rain. Overcast.8 mph88%29.85 "Hg10 mi
5:00 AM48 °FLight rain. Overcast.7 mph87%29.88 "Hg7 mi
4:00 AM47 °FLight rain. Overcast.6 mph85%29.90 "Hg7 mi
3:00 AM48 °FRain showers. Passing clouds.5 mph81%29.91 "Hg9 mi
2:00 AM48 °FCool.5 mph76%29.92 "Hg14 mi
1:00 AM47 °FPassing clouds.5 mph79%29.93 "Hg12 mi
12:00 AM47 °FPassing clouds.3 mph88%29.94 "Hg8 mi
11:00 PM
Oct 22
47 °FPassing clouds.3 mph86%29.94 "Hg7 mi
10:00 PM48 °FOvercast.2 mph84%29.95 "Hg8 mi
Weather by CustomWeather, © 2014

See weather overviewHow to use our weather pages